This demonstration page uses our WeatherBlox Daily Observations layout. Learn more.

Left ArrowRight Arrow

Hourly Observations for October 19, 2020

Temp ( °F °C ) Dew Point ( °F °C ) Humidity (%) Winds ( mph kmh ) Pressure ( in mb ) Visibility ( mi km ) Precip ( " mm )
12:53 am 00:53 Mostly Clear 32 0 29 -1.7 88 88 ENE 7 11 30.28 1026 10 16 0.00 0.00
1:53 am 01:53 Mostly Cloudy 32 0 29 -1.7 88 88 E 6 9 30.28 1026 10 16 0.00 0.00
2:53 am 02:53 Cloudy 33 0.6 28 -2.2 82 82 ESE 13 20 30.21 1023 10 16 0.00 0.00
5:53 am 05:53 Cloudy 34 1.1 29 -1.7 82 82 ESE 10 17 30.19 1023 10 16 0.00 0.00
6:53 am 06:53 Cloudy 34 1.1 29 -1.7 82 82 ESE 7 11 30.21 1023 10 16 0.00 0.00
7:53 am 07:53 Cloudy 35 1.7 30 -1.1 82 82 E 6 9 30.24 1024 10 16 0.00 0.00
8:53 am 08:53 Cloudy 35 1.7 30 -1.1 82 82 E 7 11 30.25 1024 10 16 0.00 0.00
9:53 am 09:53 Cloudy 36 2.2 29 -1.7 76 76 ESE 10 17 30.25 1024 10 16 0.00 0.00
10:53 am 10:53 Mostly Cloudy 38 3.3 29 -1.7 70 70 SSE 12 19 30.21 1023 10 16 0.00 0.00
11:53 am 11:53 Sunny 42 5.6 26 -3.3 53 53 SSE 14 22 30.19 1022 10 16 0.00 0.00
12:53 pm 12:53 Sunny 45 7.2 24 -4.4 44 44 S 10 17 30.15 1021 10 16 0.00 0.00
1:53 pm 13:53 Sunny 49 9.4 26 -3.3 41 41 S 8 13 30.13 1020 10 16 0.00 0.00
2:53 pm 14:53 Sunny 49 9.4 26 -3.3 41 41 VRB 5 7 30.13 1020 10 16 0.00 0.00
3:53 pm 15:53 Sunny 50 10 27 -2.8 41 41 S 6 9 30.10 1019 10 16 0.00 0.00
4:53 pm 16:53 Mostly Cloudy 49 9.4 28 -2.2 44 44 Calm 30.11 1020 10 16 0.00 0.00
5:53 pm 17:53 Mostly Sunny 49 9.4 27 -2.8 43 43 SSE 7 11 30.10 1019 10 16 0.00 0.00
6:53 pm 18:53 Clear 48 8.9 28 -2.2 46 46 SE 7 11 30.12 1020 10 16 0.00 0.00
7:53 pm 19:53 Clear 44 6.7 30 -1.1 58 58 SE 6 9 30.14 1021 10 16 0.00 0.00
8:53 pm 20:53 Partly Cloudy 43 6.1 31 -0.6 63 63 SE 6 9 30.14 1021 10 16 0.00 0.00
9:53 pm 21:53 Clear 41 5 31 -0.6 67 67 SE 9 15 30.15 1021 10 16 0.00 0.00
10:53 pm 22:53 Clear 40 4.4 31 -0.6 70 70 SE 9 15 30.16 1021 10 16 0.00 0.00
11:53 pm 23:53 Partly Cloudy 41 5 32 0 70 70 SSE 10 17 30.14 1021 10 16 0.00 0.00

Powered by AerisWeather